Flag for Canada Weather past 2 weeks in Norfolk, Ontario, Canada

Now
60 °F

Cool.


Feels Like: 60 °F
Forecast: 57 / 70 °F
Wind: 1 mph from North

Location: Delhi CS

Current Time: Sep 30, 2014 at 8:23:44 PM

Latest Report: Sep 30, 2014 at 7:00 PM


Visibility: N/A

Pressure: 29.92 "Hg

Humidity: 95%

Dew point: 59 °F

Location of NorfolkLocation

Historic Weather in Norfolk — Graph

°F

Norfolk temperature yesterday

Maximum temperature yesterday: 75 °F (at 3:00 PM)
Minimum temperature yesterday: 48 °F (at 7:00 AM)
Average temperature yesterday: 62 °F

Past Weeks' High & Low Weather Summary

 TemperatureHumidityPressure
High78 °F (Sep 27, 4:00 PM)100% (Sep 16, 5:00 AM)30.47 "Hg (Sep 16, 5:00 AM)
Low38 °F (Sep 19, 3:00 AM)36% (Sep 27, 5:00 PM)29.54 "Hg (Sep 21, 9:00 AM)
Average56 °F79%30.10 "Hg
* Reported Sep 15 7:00 PM — Sep 30 7:00 PM, Norfolk, Weather by CustomWeather, © 2014

Note: Actual official high and low records may vary slightly from our data, if they occured in-between our weather recording intervals... More about our weather records

Advertising

Norfolk weather history for previous 24 hours

 ConditionsComfort  
Time TempWeatherWind HumidityBarometerVisibility
7:00 PM
Sep 30
60 °FCool.1 mph95%29.92 "HgN/A
6:00 PM61 °FCool.2 mph92%29.90 "HgN/A
5:00 PM62 °FCool.5 mph88%29.89 "HgN/A
4:00 PM62 °FCool.5 mph90%29.88 "HgN/A
3:00 PM62 °FMild.3 mph85%29.88 "HgN/A
2:00 PM61 °FCool.6 mph91%29.88 "HgN/A
1:00 PM61 °FCool.5 mph91%29.88 "HgN/A
11:00 AM60 °FCool.2 mph94%29.87 "HgN/A
10:00 AM59 °FCool.2 mph99%29.86 "HgN/A
9:00 AM59 °FCool.1 mph100%29.85 "HgN/A
8:00 AM59 °FCool.2 mph99%29.86 "HgN/A
7:00 AM58 °FCool.3 mph100%29.84 "HgN/A
6:00 AM57 °FCool.1 mph100%29.84 "HgN/A
5:00 AM56 °FCool.1 mph100%29.84 "HgN/A
4:00 AM53 °FCool.2 mph99%29.83 "HgN/A
3:00 AM51 °FCool.1 mph97%29.83 "HgN/A
2:00 AM52 °FCool.No wind97%29.83 "HgN/A
1:00 AM52 °FCool.1 mph99%29.85 "HgN/A
12:00 AM53 °FCool.No wind97%29.85 "HgN/A
11:00 PM
Sep 29
55 °FCool.1 mph96%29.87 "HgN/A
10:00 PM56 °FCool.No wind94%29.88 "HgN/A
9:00 PM59 °FCool.No wind90%29.88 "HgN/A
8:00 PM64 °FMild.2 mph81%29.88 "HgN/A
Weather by CustomWeather, © 2014

See weather overviewHow to use our weather pages